| time (UTC) | temp C | wind direction | speed KPH | gust KPH | rain 1hr cm | rain 24hr cm | rain mn cm | humidity % | barometer mb |
| 20260904174555 | 15 | 221 | 4.8 | 14.5 | 0.00 | 0.36 | 0.18 | 91 | 998.5 |
| 20260904173054 | 15 | 236 | 4.8 | 14.5 | 0.00 | 0.36 | 0.18 | 90 | 998.5 |
| 20260904171554 | 15 | 288 | 4.8 | 12.9 | 0.00 | 0.36 | 0.18 | 91 | 998.4 |
| 20260904170053 | 15 | 252 | 4.8 | 14.5 | 0.00 | 0.43 | 0.18 | 92 | 998.6 |
| 20260904164550 | 15 | 239 | 4.8 | 16.1 | 0.00 | 0.43 | 0.18 | 91 | 998.8 |
| 20260904163055 | 15 | 260 | 4.8 | 12.9 | 0.00 | 0.43 | 0.18 | 91 | 998.8 |
| 20260904161547 | 15 | 241 | 4.8 | 12.9 | 0.00 | 0.43 | 0.18 | 91 | 999.1 |
| 20260904160058 | 15 | 248 | 4.8 | 14.5 | 0.00 | 0.46 | 0.18 | 90 | 999.0 |
| 20260904154548 | 16 | 252 | 4.8 | 12.9 | 0.00 | 0.46 | 0.18 | 90 | 999.2 |
| 20260904153052 | 16 | 233 | 4.8 | 12.9 | 0.00 | 0.46 | 0.18 | 89 | 999.5 |
| 20260904151542 | 16 | 221 | 3.2 | 11.3 | 0.00 | 0.46 | 0.18 | 88 | 999.5 |
| 20260904150052 | 16 | 205 | 4.8 | 11.3 | 0.00 | 0.48 | 0.18 | 88 | 999.7 |
| 20260904144539 | 16 | 227 | 3.2 | 11.3 | 0.00 | 0.48 | 0.18 | 87 | 999.8 |
| 20260904143039 | 16 | 243 | 4.8 | 14.5 | 0.00 | 0.48 | 0.18 | 86 | 1000.1 |
| 20260904141537 | 16 | 238 | 3.2 | 9.7 | 0.00 | 0.48 | 0.18 | 87 | 1000.2 |
| 20260904140034 | 16 | 248 | 4.8 | 11.3 | 0.00 | 0.48 | 0.18 | 86 | 1000.5 |
| 20260904134534 | 16 | 261 | 6.4 | 17.7 | 0.00 | 0.48 | 0.18 | 85 | 1000.7 |
| 20260904133031 | 16 | 230 | 4.8 | 14.5 | 0.00 | 0.48 | 0.18 | 86 | 1000.8 |
| 20260904131529 | 16 | 241 | 6.4 | 19.3 | 0.00 | 0.48 | 0.18 | 86 | 1000.9 |
| 20260904130041 | 15 | 250 | 4.8 | 14.5 | 0.00 | 0.48 | 0.18 | 86 | 1001.0 |
| 20260904124528 | 15 | 238 | 3.2 | 16.1 | 0.00 | 0.48 | 0.18 | 88 | 1001.1 |
| 20260904123026 | 15 | 246 | 4.8 | 12.9 | 0.00 | 0.48 | 0.18 | 88 | 1001.2 |
| 20260904121524 | 15 | 252 | 4.8 | 12.9 | 0.00 | 0.48 | 0.18 | 87 | 1001.5 |
| 20260904120033 | 15 | 251 | 4.8 | 12.9 | 0.00 | 0.48 | 0.18 | 87 | 1001.7 |
| 20260904114525 | 15 | 238 | 4.8 | 12.9 | 0.00 | 0.48 | 0.18 | 86 | 1001.9 |
| 20260904113020 | 15 | 215 | 4.8 | 16.1 | 0.00 | 0.48 | 0.18 | 88 | 1001.9 |
| 20260904111518 | 15 | 232 | 4.8 | 16.1 | 0.00 | 0.48 | 0.18 | 91 | 1001.9 |
| 20260904110017 | 14 | 252 | 1.6 | 12.9 | 0.03 | 0.48 | 0.18 | 92 | 1002.0 |
| 20260904104524 | 15 | 277 | 3.2 | 11.3 | 0.03 | 0.48 | 0.18 | 92 | 1002.1 |
| 20260904103017 | 15 | 267 | 1.6 | 6.4 | 0.03 | 0.48 | 0.18 | 92 | 1002.0 |
| 20260904101515 | 15 | 268 | 1.6 | 9.7 | 0.05 | 0.48 | 0.18 | 92 | 1002.0 |
| 20260904100015 | 15 | 265 | 4.8 | 14.5 | 0.03 | 0.46 | 0.15 | 92 | 1002.3 |
| 20260904094513 | 15 | 262 | 1.6 | 8.0 | 0.03 | 0.46 | 0.15 | 92 | 1002.3 |
| 20260904093013 | 14 | 243 | 4.8 | 11.3 | 0.03 | 0.46 | 0.15 | 92 | 1002.5 |
| 20260904091519 | 14 | 237 | 3.2 | 8.0 | 0.00 | 0.43 | 0.15 | 92 | 1002.4 |
| 20260904090011 | 14 | 242 | 3.2 | 14.5 | 0.00 | 0.43 | 0.15 | 92 | 1002.6 |
| 20260904084511 | 14 | 246 | 3.2 | 8.0 | 0.00 | 0.43 | 0.15 | 92 | 1002.5 |
| 20260904083011 | 14 | 246 | 1.6 | 11.3 | 0.00 | 0.43 | 0.15 | 92 | 1002.6 |
| 20260904081511 | 14 | 264 | 1.6 | 11.3 | 0.05 | 0.43 | 0.15 | 92 | 1002.5 |
| 20260904080011 | 14 | 241 | 1.6 | 11.3 | 0.08 | 0.43 | 0.15 | 92 | 1002.5 |
| 20260904074509 | 15 | 259 | 3.2 | 9.7 | 0.08 | 0.43 | 0.15 | 92 | 1002.4 |
| 20260904073007 | 15 | 265 | 1.6 | 11.3 | 0.08 | 0.43 | 0.15 | 92 | 1002.6 |
| 20260904071509 | 15 | 257 | 1.6 | 8.0 | 0.05 | 0.41 | 0.10 | 92 | 1002.5 |
| 20260904070008 | 15 | 290 | 1.6 | 11.3 | 0.00 | 0.36 | 0.05 | 92 | 1002.4 |
| 20260904064504 | 14 | 248 | 0.0 | 6.4 | 0.00 | 0.36 | 0.05 | 92 | 1002.7 |
| 20260904063003 | 14 | 208 | 1.6 | 9.7 | 0.00 | 0.36 | 0.05 | 93 | 1002.4 |
| 20260904061602 | 14 | 245 | 1.6 | 6.4 | 0.00 | 0.36 | 0.05 | 93 | 1002.6 |
| 20260904060002 | 14 | 274 | 1.6 | 6.4 | 0.00 | 0.36 | 0.05 | 93 | 1002.6 |
| 20260904054557 | -17 | 321 | 0.0 | 3.2 | 0.00 | 0.36 | 0.05 | 1002.6 | |
| 20260904053053 | -17 | 327 | 0.0 | 1.6 | 0.00 | 0.36 | 0.05 | 1002.6 | |
| 20260904051551 | 13 | 327 | 0.0 | 0.0 | 0.00 | 0.36 | 0.05 | 92 | 1002.6 |
| 20260904050049 | 13 | 327 | 0.0 | 0.0 | 0.00 | 0.36 | 0.05 | 92 | 1002.8 |
| 20260904044553 | -17 | 327 | 0.0 | 1.6 | 0.00 | 0.36 | 0.05 | 1002.9 | |
| 20260904043100 | -17 | 327 | 0.0 | 3.2 | 0.00 | 0.36 | 0.05 | 1002.9 | |
| 20260904041536 | -17 | 355 | 0.0 | 0.0 | 0.00 | 0.36 | 0.05 | 1002.9 | |
| 20260904040032 | -17 | 355 | 0.0 | 0.0 | 0.00 | 0.36 | 0.05 | 1002.9 | |
| 20260904034527 | -17 | 355 | 0.0 | 0.0 | 0.00 | 0.36 | 0.05 | 1003.0 | |
| 20260904033024 | -17 | 355 | 0.0 | 0.0 | 0.00 | 0.36 | 0.05 | 1002.9 | |
| 20260904031518 | -17 | 355 | 0.0 | 0.0 | 0.00 | 0.36 | 0.05 | 1002.8 | |
| 20260904030020 | -17 | 355 | 0.0 | 0.0 | 0.00 | 0.36 | 0.05 | 1002.7 | |
| 20260904024514 | 13 | 355 | 0.0 | 0.0 | 0.00 | 0.36 | 0.05 | 91 | 1002.7 |
| 20260904023012 | 13 | 355 | 0.0 | 0.0 | 0.03 | 0.36 | 0.05 | 91 | 1002.9 |
| 20260904021520 | 14 | 5 | 3.2 | 8.0 | 0.03 | 0.36 | 0.05 | 91 | 1003.0 |
| 20260904020009 | 14 | 348 | 0.0 | 6.4 | 0.03 | 0.36 | 0.05 | 91 | 1003.3 |
| 20260904014508 | 14 | 325 | 1.6 | 4.8 | 0.03 | 0.36 | 0.05 | 91 | 1003.3 |
| 20260904013003 | -17 | 334 | 1.6 | 6.4 | 0.00 | 0.33 | 0.05 | 1003.5 | |
| 20260904011557 | -17 | 336 | 1.6 | 6.4 | 0.00 | 0.33 | 0.05 | 1003.3 | |
| 20260904003054 | 15 | 350 | 0.0 | 3.2 | 0.03 | 0.33 | 0.05 | 91 | 1003.2 |
| 20260903234551 | 15 | 298 | 0.0 | 0.0 | 0.03 | 0.33 | 0.03 | 91 | 1003.3 |
| 20260903233050 | 15 | 298 | 0.0 | 1.6 | 0.03 | 0.33 | 0.03 | 91 | 1003.5 |
| 20260903231546 | 15 | 298 | 0.0 | 3.2 | 0.00 | 0.30 | 0.00 | 91 | 1003.8 |
| 20260903230049 | 15 | 307 | 0.0 | 3.2 | 0.00 | 0.30 | 0.00 | 91 | 1004.0 |
| 20260903224543 | 15 | 286 | 0.0 | 4.8 | 0.00 | 0.30 | 0.00 | 91 | 1004.2 |
| 20260903223042 | 16 | 282 | 1.6 | 8.0 | 0.00 | 0.30 | 0.00 | 91 | 1004.3 |
| 20260903221540 | 15 | 279 | 0.0 | 4.8 | 0.00 | 0.30 | 0.00 | 91 | 1004.5 |
| 20260903220039 | 15 | 271 | 0.0 | 4.8 | 0.03 | 0.30 | 0.30 | 90 | 1004.6 |
| 20260903214542 | 15 | 270 | 0.0 | 4.8 | 0.05 | 0.30 | 0.30 | 90 | 1004.8 |
| 20260903213034 | 16 | 282 | 1.6 | 6.4 | 0.05 | 0.30 | 0.30 | 90 | 1005.0 |
| 20260903211535 | 15 | 191 | 0.0 | 1.6 | 0.05 | 0.30 | 0.30 | 90 | 1005.1 |
| 20260903210039 | 15 | 191 | 1.6 | 6.4 | 0.05 | 0.28 | 0.28 | 90 | 1005.4 |
| 20260903204530 | 15 | 188 | 1.6 | 6.4 | 0.00 | 0.23 | 0.23 | 90 | 1005.5 |
| 20260903203028 | 16 | 211 | 1.6 | 6.4 | 0.00 | 0.23 | 0.23 | 90 | 1005.7 |
| 20260903201526 | 16 | 200 | 1.6 | 8.0 | 0.00 | 0.23 | 0.23 | 90 | 1005.9 |
| 20260903200025 | 16 | 209 | 3.2 | 9.7 | 0.00 | 0.23 | 0.23 | 90 | 1006.1 |
| 20260903194524 | 16 | 202 | 3.2 | 12.9 | 0.00 | 0.23 | 0.23 | 90 | 1006.3 |
| 20260903193022 | 15 | 213 | 3.2 | 12.9 | 0.00 | 0.23 | 0.23 | 90 | 1006.4 |
| 20260903191520 | 15 | 211 | 3.2 | 9.7 | 0.00 | 0.23 | 0.23 | 90 | 1006.7 |
| 20260903190021 | 15 | 211 | 3.2 | 14.5 | 0.00 | 0.23 | 0.23 | 89 | 1007.0 |
| 20260903184517 | 15 | 218 | 4.8 | 11.3 | 0.03 | 0.23 | 0.23 | 89 | 1007.2 |
| 20260903183015 | 15 | 189 | 3.2 | 12.9 | 0.10 | 0.23 | 0.23 | 89 | 1007.5 |
| 20260903181512 | 15 | 191 | 3.2 | 14.5 | 0.10 | 0.23 | 0.23 | 89 | 1007.7 |
| 20260903180011 | 15 | 183 | 1.6 | 9.7 | 0.13 | 0.23 | 0.23 | 88 | 1007.8 |